Time,TemperatureF,DewpointF,PressureIn,WindDirection,WindDirectionDegrees,WindSpeedMPH,WindSpeedGustMPH,Humidity,HourlyPrecipIn,Conditions,Clouds,dailyrainin,SoftwareType,DateUTC
2013-07-12 00:00:00,81.7,66.9,29.93,WNW,290,0.0,0.0,61,0.00,,CLR,0.00,VWS V14.01,2013-07-12 05:00:00,
2013-07-12 00:01:00,81.1,66.9,29.94,WNW,290,0.0,0.0,62,0.00,,CLR,0.00,VWS V14.01,2013-07-12 05:01:00,
2013-07-12 00:06:00,80.7,66.9,29.94,WNW,290,0.0,0.0,63,0.00,,CLR,0.00,VWS V14.01,2013-07-12 05:06:00,
2013-07-12 00:10:00,81.3,66.6,29.93,WNW,290,0.0,0.0,61,0.00,,CLR,0.00,VWS V14.01,2013-07-12 05:10:00,
2013-07-12 00:11:00,80.7,66.9,29.94,West,263,0.0,0.0,63,0.00,,CLR,0.00,VWS V14.01,2013-07-12 05:11:00,
2013-07-12 00:16:00,80.6,67.8,29.94,West,263,0.0,0.0,65,0.00,,CLR,0.00,VWS V14.01,2013-07-12 05:16:00,
2013-07-12 00:20:00,80.7,66.9,29.94,WNW,290,0.0,0.0,63,0.00,,CLR,0.00,VWS V14.01,2013-07-12 05:20:00,
2013-07-12 00:21:00,80.6,68.2,29.94,West,265,0.0,0.0,66,0.00,,CLR,0.00,VWS V14.01,2013-07-12 05:21:00,
2013-07-12 00:26:00,80.4,68.0,29.94,NNW,338,0.0,0.0,66,0.00,,CLR,0.00,VWS V14.01,2013-07-12 05:26:00,
2013-07-12 00:30:00,80.6,67.8,29.94,West,263,0.0,0.0,65,0.00,,CLR,0.00,VWS V14.01,2013-07-12 05:30:00,
2013-07-12 00:31:00,80.4,68.4,29.94,NNW,338,0.0,0.0,67,0.00,,CLR,0.00,VWS V14.01,2013-07-12 05:31:00,
2013-07-12 00:36:00,80.2,68.3,29.94,NNW,338,0.0,0.0,67,0.00,,CLR,0.00,VWS V14.01,2013-07-12 05:36:00,
2013-07-12 00:40:00,80.4,68.0,29.94,NNW,338,0.0,0.0,66,0.00,,CLR,0.00,VWS V14.01,2013-07-12 05:40:00,
2013-07-12 00:41:00,80.0,68.5,29.94,NNW,338,0.0,0.0,68,0.00,,CLR,0.00,VWS V14.01,2013-07-12 05:41:00,
2013-07-12 00:46:00,79.8,68.7,29.95,NNW,338,0.0,0.0,69,0.00,,CLR,0.00,VWS V14.01,2013-07-12 05:46:00,
2013-07-12 00:50:00,80.2,68.3,29.94,NNW,338,0.0,0.0,67,0.00,,CLR,0.00,VWS V14.01,2013-07-12 05:50:00,
2013-07-12 00:51:00,79.6,69.0,29.95,NNW,338,0.0,0.0,70,0.00,,CLR,0.00,VWS V14.01,2013-07-12 05:51:00,
2013-07-12 00:56:00,79.4,68.8,29.95,NNW,338,0.0,0.0,70,0.00,,CLR,0.00,VWS V14.01,2013-07-12 05:56:00,
2013-07-12 01:00:00,79.8,68.7,29.95,NNW,338,0.0,0.0,69,0.00,,CLR,0.00,VWS V14.01,2013-07-12 06:00:00,
2013-07-12 01:01:00,79.3,69.1,29.95,NNW,338,0.0,0.0,71,0.00,,CLR,0.00,VWS V14.01,2013-07-12 06:01:00,
2013-07-12 01:06:00,79.1,68.9,29.95,West,267,0.0,0.0,71,0.00,,CLR,0.00,VWS V14.01,2013-07-12 06:06:00,
2013-07-12 01:10:00,79.4,68.8,29.95,NNW,338,0.0,0.0,70,0.00,,CLR,0.00,VWS V14.01,2013-07-12 06:10:00,
2013-07-12 01:11:00,79.1,68.9,29.95,NW,319,0.0,0.0,71,0.00,,CLR,0.00,VWS V14.01,2013-07-12 06:11:00,
2013-07-12 01:16:00,78.9,69.1,29.95,NW,319,0.0,0.0,72,0.00,,CLR,0.00,VWS V14.01,2013-07-12 06:16:00,
2013-07-12 01:20:00,79.1,68.9,29.95,West,267,0.0,0.0,71,0.00,,CLR,0.00,VWS V14.01,2013-07-12 06:20:00,
2013-07-12 01:21:00,78.7,68.9,29.95,NW,319,0.0,0.0,72,0.00,,CLR,0.00,VWS V14.01,2013-07-12 06:21:00,
2013-07-12 01:26:00,78.5,68.7,29.95,NW,319,0.0,0.0,72,0.00,,CLR,0.00,VWS V14.01,2013-07-12 06:26:00,
2013-07-12 01:30:00,78.9,69.1,29.95,NW,319,0.0,0.0,72,0.00,,CLR,0.00,VWS V14.01,2013-07-12 06:30:00,
2013-07-12 01:31:00,78.3,68.9,29.94,NW,319,0.0,0.0,73,0.00,,CLR,0.00,VWS V14.01,2013-07-12 06:31:00,
2013-07-12 01:36:00,78.1,69.1,29.94,NW,319,0.0,0.0,74,0.00,,CLR,0.00,VWS V14.01,2013-07-12 06:36:00,
2013-07-12 01:40:00,78.5,68.7,29.95,NW,319,0.0,0.0,72,0.00,,CLR,0.00,VWS V14.01,2013-07-12 06:40:00,
2013-07-12 01:41:00,78.1,69.1,29.94,NW,319,0.0,0.0,74,0.00,,CLR,0.00,VWS V14.01,2013-07-12 06:41:00,
2013-07-12 01:46:00,78.0,69.1,29.94,NW,319,0.0,0.0,74,0.00,,CLR,0.00,VWS V14.01,2013-07-12 06:46:00,
2013-07-12 01:50:00,78.1,69.1,29.94,NW,319,0.0,0.0,74,0.00,,CLR,0.00,VWS V14.01,2013-07-12 06:50:00,
2013-07-12 01:51:00,77.8,69.2,29.94,NW,319,0.0,0.0,75,0.00,,CLR,0.00,VWS V14.01,2013-07-12 06:51:00,
2013-07-12 01:56:00,77.6,69.1,29.94,NW,319,0.0,0.0,75,0.00,,CLR,0.00,VWS V14.01,2013-07-12 06:56:00,
2013-07-12 02:00:00,78.0,69.1,29.94,NW,319,0.0,0.0,74,0.00,,CLR,0.00,VWS V14.01,2013-07-12 07:00:00,
2013-07-12 02:01:00,77.6,69.4,29.94,NW,319,0.0,0.0,76,0.00,,CLR,0.00,VWS V14.01,2013-07-12 07:01:00,
2013-07-12 02:06:00,77.4,69.2,29.94,NW,319,0.0,0.0,76,0.00,,CLR,0.00,VWS V14.01,2013-07-12 07:06:00,
2013-07-12 02:10:00,77.6,69.1,29.94,NW,319,0.0,0.0,75,0.00,,CLR,0.00,VWS V14.01,2013-07-12 07:10:00,
2013-07-12 02:11:00,77.2,69.4,29.94,NW,319,0.0,0.0,77,0.00,,CLR,0.00,VWS V14.01,2013-07-12 07:11:00,
2013-07-12 02:16:00,77.1,69.3,29.93,NW,319,0.0,0.0,77,0.00,,CLR,0.00,VWS V14.01,2013-07-12 07:16:00,
2013-07-12 02:20:00,77.4,69.2,29.94,NW,319,0.0,0.0,76,0.00,,CLR,0.00,VWS V14.01,2013-07-12 07:20:00,
2013-07-12 02:21:00,77.1,69.3,29.93,NW,319,0.0,0.0,77,0.00,,CLR,0.00,VWS V14.01,2013-07-12 07:21:00,
2013-07-12 02:26:00,76.9,69.5,29.93,NW,319,0.0,0.0,78,0.00,,CLR,0.00,VWS V14.01,2013-07-12 07:26:00,
2013-07-12 02:30:00,77.1,69.3,29.93,NW,319,0.0,0.0,77,0.00,,CLR,0.00,VWS V14.01,2013-07-12 07:30:00,
2013-07-12 02:31:00,76.7,69.3,29.93,NW,319,0.0,0.0,78,0.00,,CLR,0.00,VWS V14.01,2013-07-12 07:31:00,
2013-07-12 02:36:00,76.5,69.5,29.93,NW,319,0.0,0.0,79,0.00,,CLR,0.00,VWS V14.01,2013-07-12 07:36:00,
2013-07-12 02:40:00,76.9,69.5,29.93,NW,319,0.0,0.0,78,0.00,,CLR,0.00,VWS V14.01,2013-07-12 07:40:00,
2013-07-12 02:41:00,76.3,69.3,29.93,NW,319,0.0,0.0,79,0.00,,CLR,0.00,VWS V14.01,2013-07-12 07:41:00,
2013-07-12 02:46:00,76.2,69.6,29.93,NW,319,0.0,0.0,80,0.00,,CLR,0.00,VWS V14.01,2013-07-12 07:46:00,
2013-07-12 02:50:00,76.5,69.5,29.93,NW,319,0.0,0.0,79,0.00,,CLR,0.00,VWS V14.01,2013-07-12 07:50:00,
2013-07-12 02:51:00,76.0,69.4,29.93,NW,319,0.0,0.0,80,0.00,,CLR,0.00,VWS V14.01,2013-07-12 07:51:00,
2013-07-12 02:56:00,75.8,69.6,29.93,NW,319,0.0,0.0,81,0.00,,CLR,0.00,VWS V14.01,2013-07-12 07:56:00,
2013-07-12 03:00:00,76.2,69.6,29.93,NW,319,0.0,0.0,80,0.00,,CLR,0.00,VWS V14.01,2013-07-12 08:00:00,
2013-07-12 03:01:00,75.6,69.4,29.93,NW,319,0.0,0.0,81,0.00,,CLR,0.00,VWS V14.01,2013-07-12 08:01:00,
2013-07-12 03:06:00,75.5,69.6,29.93,NW,319,0.0,0.0,82,0.00,,CLR,0.00,VWS V14.01,2013-07-12 08:06:00,
2013-07-12 03:10:00,75.8,69.6,29.93,NW,319,0.0,0.0,81,0.00,,CLR,0.00,VWS V14.01,2013-07-12 08:10:00,
2013-07-12 03:11:00,75.3,69.4,29.93,NW,319,0.0,0.0,82,0.00,,CLR,0.00,VWS V14.01,2013-07-12 08:11:00,
2013-07-12 03:16:00,75.1,69.6,29.93,NW,319,0.0,0.0,83,0.00,,CLR,0.00,VWS V14.01,2013-07-12 08:16:00,
2013-07-12 03:20:00,75.5,69.6,29.93,NW,319,0.0,0.0,82,0.00,,CLR,0.00,VWS V14.01,2013-07-12 08:20:00,
2013-07-12 03:21:00,74.9,69.4,29.93,NW,319,0.0,0.0,83,0.00,,CLR,0.00,VWS V14.01,2013-07-12 08:21:00,
2013-07-12 03:26:00,74.8,69.3,29.93,NW,319,0.0,0.0,83,0.00,,CLR,0.00,VWS V14.01,2013-07-12 08:26:00,
2013-07-12 03:30:00,75.1,69.6,29.93,NW,319,0.0,0.0,83,0.00,,CLR,0.00,VWS V14.01,2013-07-12 08:30:00,
2013-07-12 03:31:00,74.6,69.4,29.93,NW,319,0.0,0.0,84,0.00,,CLR,0.00,VWS V14.01,2013-07-12 08:31:00,
2013-07-12 03:36:00,74.4,69.6,29.93,NW,319,0.0,0.0,85,0.00,,CLR,0.00,VWS V14.01,2013-07-12 08:36:00,
2013-07-12 03:40:00,74.8,69.7,29.93,NW,319,0.0,0.0,84,0.00,,CLR,0.00,VWS V14.01,2013-07-12 08:40:00,
2013-07-12 03:41:00,74.2,69.4,29.93,NW,319,0.0,0.0,85,0.00,,CLR,0.00,VWS V14.01,2013-07-12 08:41:00,
2013-07-12 03:46:00,74.1,69.7,29.93,NW,319,0.0,0.0,86,0.00,,CLR,0.00,VWS V14.01,2013-07-12 08:46:00,
2013-07-12 03:50:00,74.4,69.6,29.93,NW,319,0.0,0.0,85,0.00,,CLR,0.00,VWS V14.01,2013-07-12 08:50:00,
2013-07-12 03:51:00,74.1,69.7,29.93,NW,319,0.0,0.0,86,0.00,,CLR,0.00,VWS V14.01,2013-07-12 08:51:00,
2013-07-12 03:56:00,73.9,69.4,29.93,NW,319,0.0,0.0,86,0.00,,CLR,0.00,VWS V14.01,2013-07-12 08:56:00,
2013-07-12 04:00:00,74.1,69.7,29.93,NW,319,0.0,0.0,86,0.00,,CLR,0.00,VWS V14.01,2013-07-12 09:00:00,
2013-07-12 04:01:00,73.9,69.8,29.93,NW,319,0.0,0.0,87,0.00,,CLR,0.00,VWS V14.01,2013-07-12 09:01:00,
2013-07-12 04:06:00,73.7,69.6,29.93,NW,319,0.0,0.0,87,0.00,,CLR,0.00,VWS V14.01,2013-07-12 09:06:00,
2013-07-12 04:10:00,73.9,69.4,29.93,NW,319,0.0,0.0,86,0.00,,CLR,0.00,VWS V14.01,2013-07-12 09:10:00,
2013-07-12 04:11:00,73.7,69.6,29.93,NW,319,0.0,0.0,87,0.00,,CLR,0.00,VWS V14.01,2013-07-12 09:11:00,
2013-07-12 04:16:00,73.5,69.7,29.94,NW,319,0.0,0.0,88,0.00,,CLR,0.00,VWS V14.01,2013-07-12 09:16:00,
2013-07-12 04:20:00,73.7,69.6,29.93,NW,319,0.0,0.0,87,0.00,,CLR,0.00,VWS V14.01,2013-07-12 09:20:00,
2013-07-12 04:21:00,73.5,69.7,29.94,NW,319,0.0,0.0,88,0.00,,CLR,0.00,VWS V14.01,2013-07-12 09:21:00,
2013-07-12 04:26:00,73.4,69.6,29.94,NW,319,0.0,0.0,88,0.00,,CLR,0.00,VWS V14.01,2013-07-12 09:26:00,
2013-07-12 04:30:00,73.5,69.7,29.94,NW,319,0.0,0.0,88,0.00,,CLR,0.00,VWS V14.01,2013-07-12 09:30:00,
2013-07-12 04:31:00,73.4,69.6,29.93,NW,319,0.0,0.0,88,0.00,,CLR,0.00,VWS V14.01,2013-07-12 09:31:00,
2013-07-12 04:36:00,73.4,69.6,29.93,NW,319,0.0,0.0,88,0.00,,CLR,0.00,VWS V14.01,2013-07-12 09:36:00,
2013-07-12 04:40:00,73.4,69.6,29.94,NW,319,0.0,0.0,88,0.00,,CLR,0.00,VWS V14.01,2013-07-12 09:40:00,
2013-07-12 04:41:00,73.4,69.6,29.93,NW,319,0.0,0.0,88,0.00,,CLR,0.00,VWS V14.01,2013-07-12 09:41:00,
2013-07-12 04:46:00,73.4,70.0,29.94,NW,319,0.0,0.0,89,0.00,,CLR,0.00,VWS V14.01,2013-07-12 09:46:00,
2013-07-12 04:50:00,73.4,69.6,29.93,NW,319,0.0,0.0,88,0.00,,CLR,0.00,VWS V14.01,2013-07-12 09:50:00,
2013-07-12 04:51:00,73.4,70.0,29.94,NW,319,0.0,0.0,89,0.00,,CLR,0.00,VWS V14.01,2013-07-12 09:51:00,
2013-07-12 04:56:00,73.4,70.0,29.94,NW,319,0.0,0.0,89,0.00,,CLR,0.00,VWS V14.01,2013-07-12 09:56:00,
2013-07-12 05:00:00,73.4,70.0,29.94,NW,319,0.0,0.0,89,0.00,,CLR,0.00,VWS V14.01,2013-07-12 10:00:00,
2013-07-12 05:01:00,73.4,70.0,29.94,NW,319,0.0,0.0,89,0.00,,SCT012,0.00,VWS V14.01,2013-07-12 10:01:00,
2013-07-12 05:06:00,73.2,69.8,29.94,NW,319,0.0,0.0,89,0.00,,SCT012,0.00,VWS V14.01,2013-07-12 10:06:00,
2013-07-12 05:10:00,73.4,70.0,29.94,NW,319,0.0,0.0,89,0.00,,CLR,0.00,VWS V14.01,2013-07-12 10:10:00,
2013-07-12 05:11:00,73.0,69.6,29.94,NW,319,0.0,0.0,89,0.00,,SCT012,0.00,VWS V14.01,2013-07-12 10:11:00,
2013-07-12 05:16:00,72.8,69.4,29.93,NW,319,0.0,0.0,89,0.00,,SCT012,0.00,VWS V14.01,2013-07-12 10:16:00,
2013-07-12 05:20:00,73.2,69.8,29.94,NW,319,0.0,0.0,89,0.00,,CLR,0.00,VWS V14.01,2013-07-12 10:20:00,
2013-07-12 05:21:00,72.7,69.3,29.93,NW,319,0.0,0.0,89,0.00,,SCT012,0.00,VWS V14.01,2013-07-12 10:21:00,
2013-07-12 05:26:00,72.5,69.4,29.93,NW,319,0.0,0.0,90,0.00,,SCT012,0.00,VWS V14.01,2013-07-12 10:26:00,
2013-07-12 05:30:00,72.8,69.4,29.93,NW,319,0.0,0.0,89,0.00,,CLR,0.00,VWS V14.01,2013-07-12 10:30:00,
2013-07-12 05:31:00,72.3,69.2,29.94,NW,319,0.0,0.0,90,0.00,,SCT012,0.00,VWS V14.01,2013-07-12 10:31:00,
2013-07-12 05:36:00,72.3,69.2,29.94,NW,319,0.0,0.0,90,0.00,,SCT012,0.00,VWS V14.01,2013-07-12 10:36:00,
2013-07-12 05:40:00,72.5,69.4,29.93,NW,319,0.0,0.0,90,0.00,,CLR,0.00,VWS V14.01,2013-07-12 10:40:00,
2013-07-12 05:41:00,72.3,69.2,29.94,NW,319,0.0,0.0,90,0.00,,SCT012,0.00,VWS V14.01,2013-07-12 10:41:00,
2013-07-12 05:46:00,72.3,69.2,29.93,NW,319,0.0,0.0,90,0.00,,SCT012,0.00,VWS V14.01,2013-07-12 10:46:00,
2013-07-12 05:50:00,72.3,69.2,29.94,NW,319,0.0,0.0,90,0.00,,CLR,0.00,VWS V14.01,2013-07-12 10:50:00,
2013-07-12 05:51:00,72.2,69.1,29.93,NW,319,0.0,0.0,90,0.00,,SCT012,0.00,VWS V14.01,2013-07-12 10:51:00,
2013-07-12 05:56:00,72.2,69.1,29.93,NW,319,0.0,0.0,90,0.00,,SCT012,0.00,VWS V14.01,2013-07-12 10:56:00,
2013-07-12 06:00:00,72.3,69.2,29.93,NW,319,0.0,0.0,90,0.00,,CLR,0.00,VWS V14.01,2013-07-12 11:00:00,
2013-07-12 06:01:00,72.2,69.4,29.93,NW,319,0.0,0.0,91,0.00,,SCT012,0.00,VWS V14.01,2013-07-12 11:01:00,
2013-07-12 06:06:00,72.3,69.5,29.93,NW,319,0.0,0.0,91,0.00,,BKN010,0.00,VWS V14.01,2013-07-12 11:06:00,
2013-07-12 06:10:00,72.2,69.1,29.93,NW,319,0.0,0.0,90,0.00,,CLR,0.00,VWS V14.01,2013-07-12 11:10:00,
2013-07-12 06:11:00,72.5,69.7,29.93,NW,319,0.0,0.0,91,0.00,,BKN010,0.00,VWS V14.01,2013-07-12 11:11:00,
2013-07-12 06:17:00,72.5,69.7,29.93,NW,319,0.0,0.0,91,0.00,,BKN010,0.00,VWS V14.01,2013-07-12 11:17:00,
2013-07-12 06:20:00,72.3,69.5,29.93,NW,319,0.0,0.0,91,0.00,,CLR,0.00,VWS V14.01,2013-07-12 11:20:00,
2013-07-12 06:22:00,72.5,70.1,29.93,NW,319,0.0,0.0,92,0.00,,BKN010,0.00,VWS V14.01,2013-07-12 11:22:00,
2013-07-12 06:27:00,72.7,70.2,29.93,NW,319,0.0,0.0,92,0.00,,BKN010,0.00,VWS V14.01,2013-07-12 11:27:00,
2013-07-12 06:30:00,72.5,69.7,29.93,NW,319,0.0,0.0,91,0.00,,CLR,0.00,VWS V14.01,2013-07-12 11:30:00,
2013-07-12 06:32:00,72.7,70.2,29.93,NW,319,0.0,0.0,92,0.00,,BKN010,0.00,VWS V14.01,2013-07-12 11:32:00,
2013-07-12 06:37:00,72.8,70.3,29.93,NW,319,0.0,0.0,92,0.00,,BKN010,0.00,VWS V14.01,2013-07-12 11:37:00,
2013-07-12 06:40:00,72.7,70.2,29.93,NW,319,0.0,0.0,92,0.00,,CLR,0.00,VWS V14.01,2013-07-12 11:40:00,
2013-07-12 06:42:00,72.8,70.3,29.93,NW,319,0.0,0.0,92,0.00,,BKN010,0.00,VWS V14.01,2013-07-12 11:42:00,
2013-07-12 06:47:00,72.8,70.3,29.94,NW,319,0.0,0.0,92,0.00,,BKN010,0.00,VWS V14.01,2013-07-12 11:47:00,
2013-07-12 06:50:00,72.8,70.3,29.93,NW,319,0.0,0.0,92,0.00,,CLR,0.00,VWS V14.01,2013-07-12 11:50:00,
2013-07-12 06:52:00,73.0,70.5,29.94,NW,319,0.0,0.0,92,0.00,,BKN010,0.00,VWS V14.01,2013-07-12 11:52:00,
2013-07-12 06:57:00,73.0,70.5,29.94,NW,319,0.0,0.0,92,0.00,,BKN010,0.00,VWS V14.01,2013-07-12 11:57:00,
2013-07-12 07:00:00,72.8,70.3,29.94,NW,319,0.0,0.0,92,0.00,,CLR,0.00,VWS V14.01,2013-07-12 12:00:00,
2013-07-12 07:02:00,73.2,70.7,29.94,NW,319,0.0,0.0,92,0.00,,BKN010,0.00,VWS V14.01,2013-07-12 12:02:00,
2013-07-12 07:07:00,73.2,70.7,29.94,NW,319,0.0,0.0,92,0.00,,FEW008,0.00,VWS V14.01,2013-07-12 12:07:00,
2013-07-12 07:10:00,73.0,70.5,29.94,NW,319,0.0,0.0,92,0.00,,CLR,0.00,VWS V14.01,2013-07-12 12:10:00,
2013-07-12 07:12:00,73.0,70.5,29.94,NW,319,0.0,0.0,92,0.00,,FEW008,0.00,VWS V14.01,2013-07-12 12:12:00,
2013-07-12 07:17:00,73.0,70.5,29.95,NW,319,0.0,0.0,92,0.00,,FEW008,0.00,VWS V14.01,2013-07-12 12:17:00,
2013-07-12 07:20:00,73.2,70.7,29.94,NW,319,0.0,0.0,92,0.00,,CLR,0.00,VWS V14.01,2013-07-12 12:20:00,
2013-07-12 07:22:00,73.0,70.5,29.95,NW,319,0.0,0.0,92,0.00,,FEW008,0.00,VWS V14.01,2013-07-12 12:22:00,
2013-07-12 07:27:00,73.2,70.7,29.95,NW,319,0.0,0.0,92,0.00,,FEW008,0.00,VWS V14.01,2013-07-12 12:27:00,
2013-07-12 07:30:00,73.0,70.5,29.95,NW,319,0.0,0.0,92,0.00,,CLR,0.00,VWS V14.01,2013-07-12 12:30:00,
2013-07-12 07:32:00,73.2,70.7,29.95,NW,319,0.0,0.0,92,0.00,,FEW008,0.00,VWS V14.01,2013-07-12 12:32:00,
2013-07-12 07:37:00,73.2,70.7,29.95,NW,319,0.0,0.0,92,0.00,,FEW008,0.00,VWS V14.01,2013-07-12 12:37:00,
2013-07-12 07:40:00,73.2,70.7,29.95,NW,319,0.0,0.0,92,0.00,,CLR,0.00,VWS V14.01,2013-07-12 12:40:00,
2013-07-12 07:42:00,73.2,70.7,29.95,NW,319,0.0,0.0,92,0.00,,FEW008,0.00,VWS V14.01,2013-07-12 12:42:00,
2013-07-12 07:47:00,73.2,71.1,29.95,NW,319,0.0,0.0,93,0.00,,FEW008,0.00,VWS V14.01,2013-07-12 12:47:00,
2013-07-12 07:50:00,73.2,70.7,29.95,NW,319,0.0,0.0,92,0.00,,CLR,0.00,VWS V14.01,2013-07-12 12:50:00,
2013-07-12 07:52:00,73.4,70.9,29.95,NW,319,0.0,0.0,92,0.00,,FEW008,0.00,VWS V14.01,2013-07-12 12:52:00,
2013-07-12 07:57:00,73.4,71.3,29.95,NW,319,0.0,0.0,93,0.00,,FEW008,0.00,VWS V14.01,2013-07-12 12:57:00,
2013-07-12 08:00:00,73.2,71.1,29.95,NW,319,0.0,0.0,93,0.00,,CLR,0.00,VWS V14.01,2013-07-12 13:00:00,
2013-07-12 08:02:00,73.4,71.3,29.96,NW,319,0.0,0.0,93,0.00,,FEW008,0.00,VWS V14.01,2013-07-12 13:02:00,
2013-07-12 08:07:00,73.5,71.4,29.96,NW,319,0.0,0.0,93,0.00,,CLR,0.00,VWS V14.01,2013-07-12 13:07:00,
2013-07-12 08:10:00,73.4,71.3,29.95,NW,319,0.0,0.0,93,0.00,,CLR,0.00,VWS V14.01,2013-07-12 13:10:00,
2013-07-12 08:12:00,73.5,71.4,29.96,NW,319,0.0,0.0,93,0.00,,SCT006,0.00,VWS V14.01,2013-07-12 13:12:00,
2013-07-12 08:17:00,73.7,71.6,29.97,NW,319,0.0,0.0,93,0.00,,SCT006,0.00,VWS V14.01,2013-07-12 13:17:00,
2013-07-12 08:20:00,73.5,71.4,29.96,NW,319,0.0,0.0,93,0.00,,CLR,0.00,VWS V14.01,2013-07-12 13:20:00,
2013-07-12 08:22:00,73.9,71.8,29.97,NW,319,0.0,0.0,93,0.00,,SCT006,0.00,VWS V14.01,2013-07-12 13:22:00,
2013-07-12 08:27:00,74.1,71.9,29.97,NW,319,0.0,0.0,93,0.00,,SCT006,0.00,VWS V14.01,2013-07-12 13:27:00,
2013-07-12 08:30:00,73.7,71.6,29.97,NW,319,0.0,0.0,93,0.00,,CLR,0.00,VWS V14.01,2013-07-12 13:30:00,
2013-07-12 08:32:00,74.2,72.1,29.97,NW,319,0.0,0.0,93,0.00,,SCT006,0.00,VWS V14.01,2013-07-12 13:32:00,
2013-07-12 08:37:00,74.4,72.2,29.97,NW,319,0.0,0.0,93,0.00,,SCT006,0.00,VWS V14.01,2013-07-12 13:37:00,
2013-07-12 08:40:00,74.1,71.9,29.97,NW,319,0.0,0.0,93,0.00,,CLR,0.00,VWS V14.01,2013-07-12 13:40:00,
2013-07-12 08:42:00,74.6,72.4,29.97,NW,319,0.0,0.0,93,0.00,,SCT006,0.00,VWS V14.01,2013-07-12 13:42:00,
2013-07-12 08:47:00,74.9,72.7,29.97,NW,319,0.0,0.0,93,0.00,,SCT006,0.00,VWS V14.01,2013-07-12 13:47:00,
2013-07-12 08:50:00,74.4,72.2,29.97,NW,319,0.0,0.0,93,0.00,,CLR,0.00,VWS V14.01,2013-07-12 13:50:00,
2013-07-12 08:52:00,75.3,73.1,29.97,NW,319,0.0,0.0,93,0.00,,SCT006,0.00,VWS V14.01,2013-07-12 13:52:00,
2013-07-12 08:57:00,75.8,73.3,29.97,NW,319,0.0,0.0,92,0.00,,SCT006,0.00,VWS V14.01,2013-07-12 13:57:00,
2013-07-12 09:00:00,74.9,72.7,29.97,NW,319,0.0,0.0,93,0.00,,CLR,0.00,VWS V14.01,2013-07-12 14:00:00,
2013-07-12 09:02:00,76.2,73.4,29.97,NW,319,0.0,0.0,91,0.00,,SCT006,0.00,VWS V14.01,2013-07-12 14:02:00,
2013-07-12 09:07:00,76.7,73.6,29.97,NW,319,0.0,0.0,90,0.00,,BKN006,0.00,VWS V14.01,2013-07-12 14:07:00,
2013-07-12 09:10:00,75.8,73.3,29.97,NW,319,0.0,0.0,92,0.00,,CLR,0.00,VWS V14.01,2013-07-12 14:10:00,
2013-07-12 09:12:00,77.4,73.6,29.97,NW,319,0.0,0.0,88,0.00,,BKN006,0.00,VWS V14.01,2013-07-12 14:12:00,
2013-07-12 09:17:00,77.8,73.3,29.97,NW,319,0.0,0.0,86,0.00,,BKN006,0.00,VWS V14.01,2013-07-12 14:17:00,
2013-07-12 09:20:00,76.7,73.6,29.97,NW,319,0.0,0.0,90,0.00,,CLR,0.00,VWS V14.01,2013-07-12 14:20:00,
2013-07-12 09:22:00,78.3,73.1,29.97,SW,226,0.0,0.0,84,0.00,,SCT008,0.00,VWS V14.01,2013-07-12 14:22:00,
2013-07-12 09:27:00,79.1,73.1,29.97,SW,226,0.0,0.0,82,0.00,,SCT008,0.00,VWS V14.01,2013-07-12 14:27:00,
2013-07-12 09:30:00,77.8,73.3,29.97,NW,319,0.0,0.0,86,0.00,,CLR,0.00,VWS V14.01,2013-07-12 14:30:00,
2013-07-12 09:32:00,79.6,73.3,29.97,SW,226,0.0,0.0,81,0.00,,SCT008,0.00,VWS V14.01,2013-07-12 14:32:00,
2013-07-12 09:37:00,80.4,73.3,29.97,SSE,148,0.0,0.0,79,0.00,,SCT008,0.00,VWS V14.01,2013-07-12 14:37:00,
2013-07-12 09:40:00,78.9,72.9,29.97,SW,227,0.0,0.0,82,0.00,,CLR,0.00,VWS V14.01,2013-07-12 14:40:00,
2013-07-12 09:42:00,80.9,72.6,29.97,NNE,23,0.0,0.0,76,0.00,,SCT008,0.00,VWS V14.01,2013-07-12 14:42:00,
2013-07-12 09:47:00,81.5,72.8,29.97,NNE,23,0.0,0.0,75,0.00,,SCT008,0.00,VWS V14.01,2013-07-12 14:47:00,
2013-07-12 09:50:00,80.4,73.3,29.97,SSE,148,0.0,0.0,79,0.00,,CLR,0.00,VWS V14.01,2013-07-12 14:50:00,
2013-07-12 09:52:00,82.5,72.6,29.97,NNE,22,0.0,0.0,72,0.00,,SCT008,0.00,VWS V14.01,2013-07-12 14:52:00,
2013-07-12 09:57:00,82.9,71.3,29.97,NNE,22,0.0,0.0,68,0.00,,SCT008,0.00,VWS V14.01,2013-07-12 14:57:00,
2013-07-12 10:00:00,81.5,72.8,29.97,NNE,23,0.0,0.0,75,0.00,,CLR,0.00,VWS V14.01,2013-07-12 15:00:00,
2013-07-12 10:02:00,83.3,71.6,29.97,NNE,22,0.0,0.0,68,0.00,,SCT008,0.00,VWS V14.01,2013-07-12 15:02:00,
2013-07-12 10:07:00,83.8,72.6,29.97,NNE,22,0.0,0.0,69,0.00,,FEW013,0.00,VWS V14.01,2013-07-12 15:07:00,
2013-07-12 10:10:00,82.9,71.7,29.97,NNE,22,0.0,0.0,69,0.00,,CLR,0.00,VWS V14.01,2013-07-12 15:10:00,
2013-07-12 10:12:00,84.2,72.1,29.97,NNE,22,0.0,0.0,67,0.00,,FEW013,0.00,VWS V14.01,2013-07-12 15:12:00,
2013-07-12 10:17:00,84.4,71.4,29.97,NNW,328,0.0,0.0,65,0.00,,FEW013,0.00,VWS V14.01,2013-07-12 15:17:00,
2013-07-12 10:20:00,83.6,72.4,29.97,NNE,22,0.0,0.0,69,0.00,,CLR,0.00,VWS V14.01,2013-07-12 15:20:00,
2013-07-12 10:22:00,84.8,72.2,29.97,NW,325,0.0,0.0,66,0.00,,FEW013,0.00,VWS V14.01,2013-07-12 15:22:00,
2013-07-12 10:27:00,85.2,72.1,29.97,NW,325,0.0,0.0,65,0.00,,FEW013,0.00,VWS V14.01,2013-07-12 15:27:00,
2013-07-12 10:30:00,84.4,71.4,29.97,NNW,328,0.0,0.0,65,0.00,,CLR,0.00,VWS V14.01,2013-07-12 15:30:00,
2013-07-12 10:32:00,85.2,71.2,29.96,NW,326,0.0,0.0,63,0.00,,FEW013,0.00,VWS V14.01,2013-07-12 15:32:00,
2013-07-12 10:37:00,85.4,71.4,29.96,NW,326,0.0,0.0,63,0.00,,FEW013,0.00,VWS V14.01,2013-07-12 15:37:00,
2013-07-12 10:40:00,85.0,71.5,29.97,NW,325,0.0,0.0,64,0.00,,CLR,0.00,VWS V14.01,2013-07-12 15:40:00,
2013-07-12 10:42:00,85.8,72.7,29.96,NW,325,0.0,0.0,65,0.00,,FEW013,0.00,VWS V14.01,2013-07-12 15:42:00,
2013-07-12 10:47:00,86.2,71.2,29.96,NW,325,0.0,0.0,61,0.00,,FEW013,0.00,VWS V14.01,2013-07-12 15:47:00,
2013-07-12 10:50:00,85.4,71.4,29.96,NW,326,0.0,0.0,63,0.00,,CLR,0.00,VWS V14.01,2013-07-12 15:50:00,
2013-07-12 10:52:00,86.9,71.3,29.96,NW,323,0.0,0.0,60,0.00,,FEW013,0.00,VWS V14.01,2013-07-12 15:52:00,
2013-07-12 10:57:00,87.3,71.7,29.96,NW,323,0.0,0.0,60,0.00,,FEW013,0.00,VWS V14.01,2013-07-12 15:57:00,
2013-07-12 11:00:00,86.2,71.2,29.96,NW,325,0.0,0.0,61,0.00,,CLR,0.00,VWS V14.01,2013-07-12 16:00:00,
2013-07-12 11:02:00,87.7,70.6,29.96,NW,323,0.0,0.0,57,0.00,,FEW013,0.00,VWS V14.01,2013-07-12 16:02:00,
2013-07-12 11:07:00,88.3,71.7,29.96,NW,322,0.0,0.0,58,0.00,,CLR,0.00,VWS V14.01,2013-07-12 16:07:00,
2013-07-12 11:10:00,87.3,71.7,29.96,NW,323,0.0,0.0,60,0.00,,CLR,0.00,VWS V14.01,2013-07-12 16:10:00,
2013-07-12 11:12:00,88.5,70.8,29.96,NW,322,0.0,0.0,56,0.00,,CLR,0.00,VWS V14.01,2013-07-12 16:12:00,
2013-07-12 11:17:00,89.0,70.2,29.96,NW,322,0.0,0.0,54,0.00,,CLR,0.00,VWS V14.01,2013-07-12 16:17:00,
2013-07-12 11:20:00,88.3,71.7,29.96,NW,322,0.0,0.0,58,0.00,,CLR,0.00,VWS V14.01,2013-07-12 16:20:00,
2013-07-12 11:22:00,89.2,70.4,29.96,NW,322,0.0,0.0,54,0.00,,CLR,0.00,VWS V14.01,2013-07-12 16:22:00,
2013-07-12 11:27:00,89.6,69.1,29.96,NW,322,0.0,0.0,51,0.00,,CLR,0.00,VWS V14.01,2013-07-12 16:27:00,
2013-07-12 11:30:00,89.0,70.2,29.96,NW,322,0.0,0.0,54,0.00,,CLR,0.00,VWS V14.01,2013-07-12 16:30:00,
2013-07-12 11:32:00,89.8,70.9,29.96,NW,322,0.0,0.0,54,0.00,,CLR,0.00,VWS V14.01,2013-07-12 16:32:00,
2013-07-12 11:37:00,90.2,69.6,29.96,NW,323,0.0,0.0,51,0.00,,CLR,0.00,VWS V14.01,2013-07-12 16:37:00,
2013-07-12 11:40:00,89.6,69.1,29.96,NW,322,0.0,0.0,51,0.00,,CLR,0.00,VWS V14.01,2013-07-12 16:40:00,
2013-07-12 11:42:00,90.9,70.3,29.96,NW,323,0.0,0.0,51,0.00,,CLR,0.00,VWS V14.01,2013-07-12 16:42:00,
2013-07-12 11:47:00,91.1,68.7,29.96,NW,323,0.0,0.0,48,0.00,,CLR,0.00,VWS V14.01,2013-07-12 16:47:00,
2013-07-12 11:50:00,90.2,69.6,29.96,NW,323,0.0,0.0,51,0.00,,CLR,0.00,VWS V14.01,2013-07-12 16:50:00,
2013-07-12 11:52:00,91.3,69.5,29.96,NW,323,0.0,0.0,49,0.00,,CLR,0.00,VWS V14.01,2013-07-12 16:52:00,
2013-07-12 11:57:00,91.6,68.5,29.96,NW,323,0.0,0.0,47,0.00,,CLR,0.00,VWS V14.01,2013-07-12 16:57:00,
2013-07-12 12:00:00,91.1,68.7,29.96,NW,323,0.0,0.0,48,0.00,,CLR,0.00,VWS V14.01,2013-07-12 17:00:00,
2013-07-12 12:02:00,92.0,69.5,29.95,NW,323,0.0,0.0,48,0.00,,CLR,0.00,VWS V14.01,2013-07-12 17:02:00,
2013-07-12 12:07:00,92.4,68.0,29.95,NW,323,0.0,0.0,45,0.00,,CLR,0.00,VWS V14.01,2013-07-12 17:07:00,
2013-07-12 12:10:00,91.6,68.5,29.96,NW,323,0.0,0.0,47,0.00,,CLR,0.00,VWS V14.01,2013-07-12 17:10:00,
2013-07-12 12:13:00,92.4,69.9,29.95,NW,323,0.0,0.0,48,0.00,,CLR,0.00,VWS V14.01,2013-07-12 17:13:00,
2013-07-12 12:18:00,92.9,70.3,29.95,NW,323,0.0,0.0,48,0.00,,CLR,0.00,VWS V14.01,2013-07-12 17:18:00,
2013-07-12 12:20:00,92.2,67.8,29.95,NW,323,0.0,0.0,45,0.00,,CLR,0.00,VWS V14.01,2013-07-12 17:20:00,
2013-07-12 12:23:00,92.9,69.1,29.95,NW,323,0.0,0.0,46,0.00,,CLR,0.00,VWS V14.01,2013-07-12 17:23:00,
2013-07-12 12:28:00,93.1,67.3,29.95,NW,323,0.0,0.0,43,0.00,,CLR,0.00,VWS V14.01,2013-07-12 17:28:00,
2013-07-12 12:30:00,92.7,68.3,29.95,NW,323,0.0,0.0,45,0.00,,CLR,0.00,VWS V14.01,2013-07-12 17:30:00,
2013-07-12 12:34:00,93.3,66.8,29.95,NW,323,0.0,0.0,42,0.00,,CLR,0.00,VWS V14.01,2013-07-12 17:34:00,
2013-07-12 12:39:00,93.1,66.6,29.95,NW,323,0.0,0.0,42,0.00,,CLR,0.00,VWS V14.01,2013-07-12 17:39:00,
2013-07-12 12:40:00,93.1,68.0,29.95,NW,323,0.0,0.0,44,0.00,,CLR,0.00,VWS V14.01,2013-07-12 17:40:00,
2013-07-12 12:44:00,93.3,69.4,29.95,NW,323,0.0,0.0,46,0.00,,CLR,0.00,VWS V14.01,2013-07-12 17:44:00,
2013-07-12 12:49:00,93.5,67.0,29.95,NW,323,0.0,0.0,42,0.00,,CLR,0.00,VWS V14.01,2013-07-12 17:49:00,
2013-07-12 12:50:00,93.3,67.5,29.95,NW,323,0.0,0.0,43,0.00,,CLR,0.00,VWS V14.01,2013-07-12 17:50:00,
2013-07-12 12:54:00,94.0,67.4,29.95,NW,323,0.0,0.0,42,0.00,,CLR,0.00,VWS V14.01,2013-07-12 17:54:00,
2013-07-12 12:59:00,93.8,65.8,29.95,NW,323,0.0,0.0,40,0.00,,CLR,0.00,VWS V14.01,2013-07-12 17:59:00,
2013-07-12 13:00:00,93.5,67.7,29.95,NW,323,0.0,0.0,43,0.00,,CLR,0.00,VWS V14.01,2013-07-12 18:00:00,
2013-07-12 13:05:00,94.0,66.0,29.94,NW,323,0.0,0.0,40,0.00,,CLR,0.00,VWS V14.01,2013-07-12 18:05:00,
2013-07-12 13:10:00,94.0,66.0,29.94,NW,323,0.0,0.0,40,0.00,,CLR,0.00,VWS V14.01,2013-07-12 18:10:00,
2013-07-12 13:15:00,94.2,69.6,29.94,NW,323,0.0,0.0,45,0.00,,CLR,0.00,VWS V14.01,2013-07-12 18:15:00,
2013-07-12 13:20:00,94.6,65.1,29.95,NW,323,0.0,0.0,38,0.00,,CLR,0.00,VWS V14.01,2013-07-12 18:20:00,
2013-07-12 13:25:00,95.1,65.5,29.95,NW,323,0.0,0.0,38,0.00,,CLR,0.00,VWS V14.01,2013-07-12 18:25:00,
2013-07-12 13:30:00,94.9,63.8,29.95,NW,323,0.0,0.0,36,0.00,,CLR,0.00,VWS V14.01,2013-07-12 18:30:00,
2013-07-12 13:36:00,94.9,68.2,29.94,NW,323,0.0,0.0,42,0.00,,CLR,0.00,VWS V14.01,2013-07-12 18:36:00,
2013-07-12 13:40:00,95.1,66.3,29.95,NW,323,0.0,0.0,39,0.00,,CLR,0.00,VWS V14.01,2013-07-12 18:40:00,
2013-07-12 13:41:00,95.6,66.0,29.94,NW,323,0.0,0.0,38,0.00,,CLR,0.00,VWS V14.01,2013-07-12 18:41:00,
2013-07-12 13:46:00,95.8,63.8,29.93,NW,325,0.0,0.0,35,0.00,,CLR,0.00,VWS V14.01,2013-07-12 18:46:00,
2013-07-12 13:50:00,95.1,69.8,29.94,NW,323,0.0,0.0,44,0.00,,CLR,0.00,VWS V14.01,2013-07-12 18:50:00,
2013-07-12 13:52:00,96.1,66.4,29.93,NW,325,0.0,0.0,38,0.00,,CLR,0.00,VWS V14.01,2013-07-12 18:52:00,
2013-07-12 13:57:00,96.1,60.6,29.93,NW,325,0.0,0.0,31,0.00,,CLR,0.00,VWS V14.01,2013-07-12 18:57:00,
2013-07-12 14:00:00,95.8,63.8,29.93,NW,325,0.0,0.0,35,0.00,,CLR,0.00,VWS V14.01,2013-07-12 19:00:00,
2013-07-12 14:02:00,96.3,62.5,29.93,NW,325,0.0,0.0,33,0.00,,CLR,0.00,VWS V14.01,2013-07-12 19:02:00,
2013-07-12 14:07:00,96.3,65.0,29.93,NW,325,0.0,0.0,36,0.00,,CLR,0.00,VWS V14.01,2013-07-12 19:07:00,
2013-07-12 14:10:00,96.1,66.4,29.93,NW,325,0.0,0.0,38,0.00,,CLR,0.00,VWS V14.01,2013-07-12 19:10:00,
2013-07-12 14:12:00,96.3,63.4,29.93,NW,325,0.0,0.0,34,0.00,,CLR,0.00,VWS V14.01,2013-07-12 19:12:00,
2013-07-12 14:17:00,96.3,60.8,29.92,NW,325,0.0,0.0,31,0.00,,CLR,0.00,VWS V14.01,2013-07-12 19:17:00,
2013-07-12 14:20:00,96.3,60.8,29.93,NW,325,0.0,0.0,31,0.00,,CLR,0.00,VWS V14.01,2013-07-12 19:20:00,
2013-07-12 14:23:00,96.6,66.1,29.92,NW,325,0.0,0.0,37,0.00,,CLR,0.00,VWS V14.01,2013-07-12 19:23:00,
2013-07-12 14:28:00,97.0,63.2,29.92,NW,325,0.0,0.0,33,0.00,,CLR,0.00,VWS V14.01,2013-07-12 19:28:00,
2013-07-12 14:30:00,96.3,61.7,29.92,NW,325,0.0,0.0,32,0.00,,CLR,0.00,VWS V14.01,2013-07-12 19:30:00,
2013-07-12 14:33:00,97.0,64.0,29.92,NW,325,0.0,0.0,34,0.00,,CLR,0.00,VWS V14.01,2013-07-12 19:33:00,
2013-07-12 14:38:00,96.8,66.2,29.92,NW,325,0.0,0.0,37,0.00,,CLR,0.00,VWS V14.01,2013-07-12 19:38:00,
2013-07-12 14:40:00,96.8,62.1,29.92,NW,325,0.0,0.0,32,0.00,,CLR,0.00,VWS V14.01,2013-07-12 19:40:00,
2013-07-12 14:43:00,96.8,59.3,29.92,NW,323,0.0,0.0,29,0.00,,CLR,0.00,VWS V14.01,2013-07-12 19:43:00,
2013-07-12 14:49:00,96.8,63.0,29.92,NW,323,0.0,0.0,33,0.00,,CLR,0.00,VWS V14.01,2013-07-12 19:49:00,
2013-07-12 14:50:00,96.8,63.8,29.92,NW,325,0.0,0.0,34,0.00,,CLR,0.00,VWS V14.01,2013-07-12 19:50:00,
2013-07-12 14:54:00,96.6,62.8,29.92,NW,323,0.0,0.0,33,0.00,,CLR,0.00,VWS V14.01,2013-07-12 19:54:00,
2013-07-12 14:59:00,96.1,63.2,29.92,NW,323,0.0,0.0,34,0.00,,CLR,0.00,VWS V14.01,2013-07-12 19:59:00,
2013-07-12 15:00:00,96.8,59.3,29.92,NW,323,0.0,0.0,29,0.00,,CLR,0.00,VWS V14.01,2013-07-12 20:00:00,
2013-07-12 15:04:00,96.1,60.6,29.91,NW,323,0.0,0.0,31,0.00,,FEW075,0.00,VWS V14.01,2013-07-12 20:04:00,
2013-07-12 15:09:00,96.1,61.5,29.91,NW,323,0.0,0.0,32,0.00,,FEW075,0.00,VWS V14.01,2013-07-12 20:09:00,
2013-07-12 15:10:00,96.3,62.5,29.92,NW,323,0.0,0.0,33,0.00,,CLR,0.00,VWS V14.01,2013-07-12 20:10:00,
2013-07-12 15:14:00,95.8,56.5,29.91,NW,323,0.0,0.0,27,0.00,,FEW075,0.00,VWS V14.01,2013-07-12 20:14:00,
2013-07-12 15:19:00,95.6,61.9,29.90,NW,323,0.0,0.0,33,0.00,,FEW075,0.00,VWS V14.01,2013-07-12 20:19:00,
2013-07-12 15:20:00,96.3,62.5,29.91,NW,323,0.0,0.0,33,0.00,,CLR,0.00,VWS V14.01,2013-07-12 20:20:00,
2013-07-12 15:24:00,95.8,60.3,29.90,NW,323,0.0,0.0,31,0.00,,FEW075,0.00,VWS V14.01,2013-07-12 20:24:00,
2013-07-12 15:29:00,96.6,58.2,29.90,NW,322,0.0,0.0,28,0.00,,FEW075,0.00,VWS V14.01,2013-07-12 20:29:00,
2013-07-12 15:30:00,95.6,63.6,29.90,NW,323,0.0,0.0,35,0.00,,CLR,0.00,VWS V14.01,2013-07-12 20:30:00,
2013-07-12 15:34:00,96.8,61.2,29.90,NW,322,0.0,0.0,31,0.00,,FEW075,0.00,VWS V14.01,2013-07-12 20:34:00,
2013-07-12 15:40:00,97.0,57.5,29.90,North,360,0.0,0.0,27,0.00,,FEW075,0.00,VWS V14.01,2013-07-12 20:40:00,
2013-07-12 15:45:00,97.3,57.8,29.90,ENE,75,0.0,0.0,27,0.00,,FEW075,0.00,VWS V14.01,2013-07-12 20:45:00,
2013-07-12 15:50:00,97.7,59.1,29.89,ENE,75,0.0,0.0,28,0.00,,FEW075,0.00,VWS V14.01,2013-07-12 20:50:00,
2013-07-12 15:55:00,98.0,58.3,29.89,ENE,75,0.0,0.0,27,0.00,,FEW075,0.00,VWS V14.01,2013-07-12 20:55:00,
2013-07-12 16:00:00,97.7,59.1,29.89,ENE,75,0.0,0.0,28,0.00,,FEW075,0.00,VWS V14.01,2013-07-12 21:00:00,
2013-07-12 16:06:00,97.5,55.8,29.89,NE,40,0.0,0.0,25,0.00,,FEW085,0.00,VWS V14.01,2013-07-12 21:06:00,
2013-07-12 16:10:00,98.0,56.2,29.89,ENE,75,0.0,0.0,25,0.00,,CLR,0.00,VWS V14.01,2013-07-12 21:10:00,
2013-07-12 16:11:00,97.3,57.8,29.89,NNW,341,0.0,0.0,27,0.00,,FEW085,0.00,VWS V14.01,2013-07-12 21:11:00,
2013-07-12 16:16:00,97.3,57.8,29.89,NNW,341,0.0,0.0,27,0.00,,FEW085,0.00,VWS V14.01,2013-07-12 21:16:00,
2013-07-12 16:20:00,97.5,56.9,29.89,NE,40,0.0,0.0,26,0.00,,CLR,0.00,VWS V14.01,2013-07-12 21:20:00,
2013-07-12 16:21:00,97.0,57.5,29.89,NNW,341,0.0,0.0,27,0.00,,FEW085,0.00,VWS V14.01,2013-07-12 21:21:00,
2013-07-12 16:26:00,97.0,56.5,29.89,NNW,341,0.0,0.0,26,0.00,,FEW085,0.00,VWS V14.01,2013-07-12 21:26:00,
2013-07-12 16:30:00,97.3,60.7,29.89,NNW,341,0.0,0.0,30,0.00,,CLR,0.00,VWS V14.01,2013-07-12 21:30:00,
2013-07-12 16:31:00,96.6,59.2,29.89,NNW,341,0.0,0.0,29,0.00,,FEW085,0.00,VWS V14.01,2013-07-12 21:31:00,
2013-07-12 16:37:00,96.3,61.7,29.89,NNW,341,0.0,0.0,32,0.00,,FEW085,0.00,VWS V14.01,2013-07-12 21:37:00,
2013-07-12 16:40:00,97.0,56.5,29.89,NNW,341,0.0,0.0,26,0.00,,CLR,0.00,VWS V14.01,2013-07-12 21:40:00,
2013-07-12 16:42:00,96.6,63.7,29.89,NNW,341,0.0,0.0,34,0.00,,FEW085,0.00,VWS V14.01,2013-07-12 21:42:00,
2013-07-12 16:47:00,96.6,60.1,29.89,NNW,341,0.0,0.0,30,0.00,,FEW085,0.00,VWS V14.01,2013-07-12 21:47:00,
2013-07-12 16:50:00,96.3,61.7,29.89,NNW,341,0.0,0.0,32,0.00,,CLR,0.00,VWS V14.01,2013-07-12 21:50:00,
2013-07-12 16:52:00,96.6,60.1,29.89,NNW,341,0.0,0.0,30,0.00,,FEW085,0.00,VWS V14.01,2013-07-12 21:52:00,
2013-07-12 16:57:00,96.6,60.1,29.89,NNW,340,0.0,0.0,30,0.00,,FEW085,0.00,VWS V14.01,2013-07-12 21:57:00,
2013-07-12 17:00:00,96.6,60.1,29.89,NNW,341,0.0,0.0,30,0.00,,CLR,0.00,VWS V14.01,2013-07-12 22:00:00,
2013-07-12 17:02:00,96.3,58.9,29.88,NNW,340,0.0,0.0,29,0.00,,FEW085,0.00,VWS V14.01,2013-07-12 22:02:00,
2013-07-12 17:07:00,96.1,61.5,29.88,NNW,340,0.0,0.0,32,0.00,,FEW080,0.00,VWS V14.01,2013-07-12 22:07:00,
2013-07-12 17:10:00,96.6,60.1,29.89,NNW,340,0.0,0.0,30,0.00,,CLR,0.00,VWS V14.01,2013-07-12 22:10:00,
2013-07-12 17:12:00,95.8,61.2,29.88,NNW,340,0.0,0.0,32,0.00,,FEW080,0.00,VWS V14.01,2013-07-12 22:12:00,
2013-07-12 17:17:00,95.6,60.2,29.87,NNW,346,0.0,0.0,31,0.00,,FEW080,0.00,VWS V14.01,2013-07-12 22:17:00,
2013-07-12 17:20:00,96.1,61.5,29.88,NNW,340,0.0,0.0,32,0.00,,CLR,0.00,VWS V14.01,2013-07-12 22:20:00,
2013-07-12 17:22:00,95.6,64.4,29.87,NNW,346,0.0,0.0,36,0.00,,FEW080,0.00,VWS V14.01,2013-07-12 22:22:00,
2013-07-12 17:27:00,95.4,63.4,29.87,NNW,346,0.0,0.0,35,0.00,,FEW080,0.00,VWS V14.01,2013-07-12 22:27:00,
2013-07-12 17:30:00,95.6,60.2,29.87,NNW,346,0.0,0.0,31,0.00,,CLR,0.00,VWS V14.01,2013-07-12 22:30:00,
2013-07-12 17:32:00,94.9,61.3,29.87,NNW,346,0.0,0.0,33,0.00,,FEW080,0.00,VWS V14.01,2013-07-12 22:32:00,
2013-07-12 17:37:00,94.6,61.1,29.87,NNW,346,0.0,0.0,33,0.00,,FEW080,0.00,VWS V14.01,2013-07-12 22:37:00,
2013-07-12 17:40:00,95.6,64.4,29.87,NNW,346,0.0,0.0,36,0.00,,CLR,0.00,VWS V14.01,2013-07-12 22:40:00,
2013-07-12 17:42:00,94.6,59.3,29.87,NNW,346,0.0,0.0,31,0.00,,FEW080,0.00,VWS V14.01,2013-07-12 22:42:00,
2013-07-12 17:47:00,94.6,61.1,29.87,NNW,346,0.0,0.0,33,0.00,,FEW080,0.00,VWS V14.01,2013-07-12 22:47:00,
2013-07-12 17:50:00,94.6,61.1,29.87,NNW,346,0.0,0.0,33,0.00,,CLR,0.00,VWS V14.01,2013-07-12 22:50:00,
2013-07-12 17:52:00,94.6,65.1,29.87,NNW,346,0.0,0.0,38,0.00,,FEW080,0.00,VWS V14.01,2013-07-12 22:52:00,
2013-07-12 17:57:00,94.4,64.9,29.87,NNW,346,0.0,0.0,38,0.00,,FEW080,0.00,VWS V14.01,2013-07-12 22:57:00,
2013-07-12 18:00:00,94.6,61.1,29.87,NNW,346,0.0,0.0,33,0.00,,CLR,0.00,VWS V14.01,2013-07-12 23:00:00,
2013-07-12 18:02:00,94.2,62.4,29.87,NNW,346,0.0,0.0,35,0.00,,FEW080,0.00,VWS V14.01,2013-07-12 23:02:00,
2013-07-12 18:08:00,94.2,62.4,29.87,NNW,346,0.0,0.0,35,0.00,,FEW110,0.00,VWS V14.01,2013-07-12 23:08:00,
2013-07-12 18:10:00,94.4,64.9,29.87,NNW,346,0.0,0.0,38,0.00,,CLR,0.00,VWS V14.01,2013-07-12 23:10:00,
2013-07-12 18:13:00,94.2,62.4,29.87,NNW,346,0.0,0.0,35,0.00,,FEW110,0.00,VWS V14.01,2013-07-12 23:13:00,
2013-07-12 18:18:00,94.4,61.7,29.86,NNW,346,0.0,0.0,34,0.00,,FEW110,0.00,VWS V14.01,2013-07-12 23:18:00,
2013-07-12 18:20:00,94.2,62.4,29.87,NNW,346,0.0,0.0,35,0.00,,CLR,0.00,VWS V14.01,2013-07-12 23:20:00,
2013-07-12 18:23:00,94.4,61.7,29.86,NNW,344,0.0,0.0,34,0.00,,FEW110,0.00,VWS V14.01,2013-07-12 23:23:00,
2013-07-12 18:29:00,94.4,64.1,29.86,NNW,344,0.0,0.0,37,0.00,,FEW110,0.00,VWS V14.01,2013-07-12 23:29:00,
2013-07-12 18:30:00,94.4,62.6,29.86,NNW,346,0.0,0.0,35,0.00,,CLR,0.00,VWS V14.01,2013-07-12 23:30:00,
2013-07-12 18:34:00,94.4,61.7,29.86,NNW,344,0.0,0.0,34,0.00,,FEW110,0.00,VWS V14.01,2013-07-12 23:34:00,
2013-07-12 18:39:00,94.4,61.7,29.86,NNW,344,0.0,0.0,34,0.00,,FEW110,0.00,VWS V14.01,2013-07-12 23:39:00,
2013-07-12 18:40:00,94.4,64.1,29.86,NNW,344,0.0,0.0,37,0.00,,CLR,0.00,VWS V14.01,2013-07-12 23:40:00,
2013-07-12 18:44:00,94.2,61.6,29.86,NNW,344,0.0,0.0,34,0.00,,FEW110,0.00,VWS V14.01,2013-07-12 23:44:00,
2013-07-12 18:49:00,94.0,62.2,29.86,NNW,344,0.0,0.0,35,0.00,,FEW110,0.00,VWS V14.01,2013-07-12 23:49:00,
2013-07-12 18:50:00,94.4,63.4,29.86,NNW,344,0.0,0.0,36,0.00,,CLR,0.00,VWS V14.01,2013-07-12 23:50:00,
2013-07-12 18:54:00,93.3,63.9,29.86,NNW,344,0.0,0.0,38,0.00,,FEW110,0.00,VWS V14.01,2013-07-12 23:54:00,
2013-07-12 19:00:00,92.7,62.6,29.86,NNW,344,0.0,0.0,37,0.00,,FEW110,0.00,VWS V14.01,2013-07-13 00:00:00,
2013-07-12 19:05:00,92.2,64.4,29.86,NNW,344,0.0,0.0,40,0.00,,FEW090,0.00,VWS V14.01,2013-07-13 00:05:00,
2013-07-12 19:10:00,91.8,62.6,29.86,NNW,344,0.0,0.0,38,0.00,,FEW090,0.00,VWS V14.01,2013-07-13 00:10:00,
2013-07-12 19:16:00,91.6,62.4,29.86,NNW,344,0.0,0.0,38,0.00,,FEW090,0.00,VWS V14.01,2013-07-13 00:16:00,
2013-07-12 19:20:00,92.0,63.5,29.86,NNW,344,0.0,0.0,39,0.00,,CLR,0.00,VWS V14.01,2013-07-13 00:20:00,
2013-07-12 19:21:00,91.8,62.6,29.86,NNW,344,0.0,0.0,38,0.00,,FEW090,0.00,VWS V14.01,2013-07-13 00:21:00,
2013-07-12 19:27:00,91.8,63.3,29.86,NNW,344,0.0,0.0,39,0.00,,FEW090,0.00,VWS V14.01,2013-07-13 00:27:00,
2013-07-12 19:30:00,91.6,62.4,29.86,NNW,344,0.0,0.0,38,0.00,,CLR,0.00,VWS V14.01,2013-07-13 00:30:00,
2013-07-12 19:32:00,91.6,64.6,29.87,NNW,344,0.0,0.0,41,0.00,,FEW090,0.00,VWS V14.01,2013-07-13 00:32:00,
2013-07-12 19:37:00,91.3,64.3,29.87,NNW,344,0.0,0.0,41,0.00,,FEW090,0.00,VWS V14.01,2013-07-13 00:37:00,
2013-07-12 19:40:00,91.8,63.3,29.86,NNW,344,0.0,0.0,39,0.00,,CLR,0.00,VWS V14.01,2013-07-13 00:40:00,
2013-07-12 19:42:00,91.1,62.7,29.87,NNW,344,0.0,0.0,39,0.00,,FEW090,0.00,VWS V14.01,2013-07-13 00:42:00,
2013-07-12 19:48:00,90.9,63.3,29.87,NNW,344,0.0,0.0,40,0.00,,FEW090,0.00,VWS V14.01,2013-07-13 00:48:00,
2013-07-12 19:50:00,91.3,65.0,29.87,NNW,344,0.0,0.0,42,0.00,,CLR,0.00,VWS V14.01,2013-07-13 00:50:00,
2013-07-12 19:53:00,90.7,63.1,29.87,NNW,344,0.0,0.0,40,0.00,,FEW090,0.00,VWS V14.01,2013-07-13 00:53:00,
2013-07-12 19:58:00,90.7,63.8,29.87,NNW,344,0.0,0.0,41,0.00,,FEW090,0.00,VWS V14.01,2013-07-13 00:58:00,
2013-07-12 20:00:00,90.9,64.0,29.87,NNW,344,0.0,0.0,41,0.00,,CLR,0.00,VWS V14.01,2013-07-13 01:00:00,
2013-07-12 20:04:00,90.2,64.7,29.87,NNW,344,0.0,0.0,43,0.00,,CLR,0.00,VWS V14.01,2013-07-13 01:04:00,
2013-07-12 20:09:00,90.0,63.8,29.87,NNW,344,0.0,0.0,42,0.00,,CLR,0.00,VWS V14.01,2013-07-13 01:09:00,
2013-07-12 20:10:00,90.7,63.1,29.87,NNW,344,0.0,0.0,40,0.00,,CLR,0.00,VWS V14.01,2013-07-13 01:10:00,
2013-07-12 20:14:00,89.6,64.2,29.87,NNW,344,0.0,0.0,43,0.00,,CLR,0.00,VWS V14.01,2013-07-13 01:14:00,
2013-07-12 20:19:00,89.4,64.0,29.87,NNW,344,0.0,0.0,43,0.00,,CLR,0.00,VWS V14.01,2013-07-13 01:19:00,
2013-07-12 20:20:00,90.0,63.8,29.87,NNW,344,0.0,0.0,42,0.00,,CLR,0.00,VWS V14.01,2013-07-13 01:20:00,
2013-07-12 20:24:00,89.0,64.3,29.87,NNW,344,0.0,0.0,44,0.00,,CLR,0.00,VWS V14.01,2013-07-13 01:24:00,
2013-07-12 20:29:00,88.8,64.7,29.87,NNW,344,0.0,0.0,45,0.00,,CLR,0.00,VWS V14.01,2013-07-13 01:29:00,
2013-07-12 20:30:00,89.4,64.0,29.87,NNW,344,0.0,0.0,43,0.00,,CLR,0.00,VWS V14.01,2013-07-13 01:30:00,
2013-07-12 20:34:00,88.3,63.7,29.87,NNW,344,0.0,0.0,44,0.00,,CLR,0.00,VWS V14.01,2013-07-13 01:34:00,
2013-07-12 20:39:00,87.9,63.3,29.87,NNW,344,0.0,0.0,44,0.00,,CLR,0.00,VWS V14.01,2013-07-13 01:39:00,
2013-07-12 20:40:00,88.8,64.1,29.87,NNW,344,0.0,0.0,44,0.00,,CLR,0.00,VWS V14.01,2013-07-13 01:40:00,
2013-07-12 20:44:00,87.7,63.1,29.87,NNW,344,0.0,0.0,44,0.00,,CLR,0.00,VWS V14.01,2013-07-13 01:44:00,
2013-07-12 20:50:00,87.9,63.9,29.87,West,279,0.0,0.0,45,0.00,,CLR,0.00,VWS V14.01,2013-07-13 01:50:00,
2013-07-12 20:55:00,88.1,65.3,29.87,West,279,0.0,0.0,47,0.00,,CLR,0.00,VWS V14.01,2013-07-13 01:55:00,
2013-07-12 21:00:00,88.1,66.6,29.87,WNW,298,0.0,0.0,49,0.00,,CLR,0.00,VWS V14.01,2013-07-13 02:00:00,
2013-07-12 21:05:00,88.1,66.6,29.88,WNW,298,0.0,0.0,49,0.00,,CLR,0.00,VWS V14.01,2013-07-13 02:05:00,
2013-07-12 21:10:00,88.1,65.3,29.87,WNW,296,0.0,0.0,47,0.00,,CLR,0.00,VWS V14.01,2013-07-13 02:10:00,
2013-07-12 21:11:00,88.1,66.6,29.88,NW,306,0.0,0.0,49,0.00,,CLR,0.00,VWS V14.01,2013-07-13 02:11:00,
2013-07-12 21:16:00,87.9,66.9,29.88,NW,306,0.0,0.0,50,0.00,,CLR,0.00,VWS V14.01,2013-07-13 02:16:00,
2013-07-12 21:20:00,88.1,66.6,29.88,WNW,298,0.0,0.0,49,0.00,,CLR,0.00,VWS V14.01,2013-07-13 02:20:00,
2013-07-12 21:21:00,87.7,67.3,29.88,NW,307,0.0,0.0,51,0.00,,CLR,0.00,VWS V14.01,2013-07-13 02:21:00,
2013-07-12 21:26:00,87.5,67.7,29.88,NW,307,0.0,0.0,52,0.00,,CLR,0.00,VWS V14.01,2013-07-13 02:26:00,
2013-07-12 21:30:00,87.9,67.5,29.88,NW,307,0.0,0.0,51,0.00,,CLR,0.00,VWS V14.01,2013-07-13 02:30:00,
2013-07-12 21:31:00,87.3,67.5,29.88,NW,307,0.0,0.0,52,0.00,,CLR,0.00,VWS V14.01,2013-07-13 02:31:00,
2013-07-12 21:37:00,87.1,67.9,29.88,NW,307,0.0,0.0,53,0.00,,CLR,0.00,VWS V14.01,2013-07-13 02:37:00,
2013-07-12 21:40:00,87.5,67.7,29.88,NW,307,0.0,0.0,52,0.00,,CLR,0.00,VWS V14.01,2013-07-13 02:40:00,
2013-07-12 21:42:00,86.9,68.3,29.88,NW,307,0.0,0.0,54,0.00,,CLR,0.00,VWS V14.01,2013-07-13 02:42:00,
2013-07-12 21:47:00,86.7,67.5,29.88,NW,307,0.0,0.0,53,0.00,,CLR,0.00,VWS V14.01,2013-07-13 02:47:00,
2013-07-12 21:50:00,87.1,67.9,29.88,NW,307,0.0,0.0,53,0.00,,CLR,0.00,VWS V14.01,2013-07-13 02:50:00,
2013-07-12 21:52:00,86.5,67.3,29.88,NW,321,0.0,0.0,53,0.00,,CLR,0.00,VWS V14.01,2013-07-13 02:52:00,
2013-07-12 21:57:00,86.2,67.6,29.88,NW,321,0.0,0.0,54,0.00,,CLR,0.00,VWS V14.01,2013-07-13 02:57:00,
2013-07-12 22:00:00,86.7,67.5,29.88,NW,307,0.0,0.0,53,0.00,,CLR,0.00,VWS V14.01,2013-07-13 03:00:00,
2013-07-12 22:03:00,86.0,68.0,29.89,NNW,331,0.0,0.0,55,0.00,,CLR,0.00,VWS V14.01,2013-07-13 03:03:00,
2013-07-12 22:08:00,85.8,67.2,29.89,NNW,331,0.0,0.0,54,0.00,,CLR,0.00,VWS V14.01,2013-07-13 03:08:00,
2013-07-12 22:10:00,86.2,67.6,29.88,NW,321,0.0,0.0,54,0.00,,CLR,0.00,VWS V14.01,2013-07-13 03:10:00,
2013-07-12 22:13:00,85.6,67.6,29.89,NNW,331,0.0,0.0,55,0.00,,CLR,0.00,VWS V14.01,2013-07-13 03:13:00,
2013-07-12 22:18:00,85.6,67.6,29.89,NNW,331,0.0,0.0,55,0.00,,CLR,0.00,VWS V14.01,2013-07-13 03:18:00,
2013-07-12 22:20:00,85.8,67.2,29.89,NNW,331,0.0,0.0,54,0.00,,CLR,0.00,VWS V14.01,2013-07-13 03:20:00,
2013-07-12 22:23:00,85.4,67.4,29.89,NNW,331,0.0,0.0,55,0.00,,CLR,0.00,VWS V14.01,2013-07-13 03:23:00,
2013-07-12 22:29:00,85.2,67.2,29.89,WNW,286,0.0,0.0,55,0.00,,CLR,0.00,VWS V14.01,2013-07-13 03:29:00,
2013-07-12 22:30:00,85.6,67.6,29.89,NNW,331,0.0,0.0,55,0.00,,CLR,0.00,VWS V14.01,2013-07-13 03:30:00,
2013-07-12 22:34:00,85.0,67.0,29.90,WNW,286,0.0,0.0,55,0.00,,CLR,0.00,VWS V14.01,2013-07-13 03:34:00,
2013-07-12 22:39:00,84.8,67.4,29.90,WNW,286,0.0,0.0,56,0.00,,CLR,0.00,VWS V14.01,2013-07-13 03:39:00,
2013-07-12 22:40:00,85.2,67.2,29.89,NNW,331,0.0,0.0,55,0.00,,CLR,0.00,VWS V14.01,2013-07-13 03:40:00,
2013-07-12 22:44:00,84.6,68.2,29.90,WNW,286,0.0,0.0,58,0.00,,CLR,0.00,VWS V14.01,2013-07-13 03:44:00,
2013-07-12 22:49:00,84.4,68.0,29.90,WNW,286,0.0,0.0,58,0.00,,CLR,0.00,VWS V14.01,2013-07-13 03:49:00,
2013-07-12 22:50:00,84.8,67.4,29.90,WNW,286,0.0,0.0,56,0.00,,CLR,0.00,VWS V14.01,2013-07-13 03:50:00,
2013-07-12 22:54:00,84.2,67.8,29.90,WNW,286,0.0,0.0,58,0.00,,CLR,0.00,VWS V14.01,2013-07-13 03:54:00,
2013-07-12 22:59:00,84.0,67.1,29.90,WNW,284,0.0,0.0,57,0.00,,CLR,0.00,VWS V14.01,2013-07-13 03:59:00,
2013-07-12 23:00:00,84.6,68.2,29.90,WNW,286,0.0,0.0,58,0.00,,CLR,0.00,VWS V14.01,2013-07-13 04:00:00,
2013-07-12 23:01:00,83.8,67.0,29.90,WNW,284,0.0,0.0,57,0.00,,CLR,0.00,VWS V14.01,2013-07-13 04:01:00,
2013-07-12 23:02:00,83.8,67.0,29.91,WNW,284,0.0,0.0,57,0.00,,CLR,0.00,VWS V14.01,2013-07-13 04:02:00,
2013-07-12 23:07:00,83.6,67.3,29.91,WNW,284,0.0,0.0,58,0.00,,CLR,0.00,VWS V14.01,2013-07-13 04:07:00,
2013-07-12 23:10:00,84.0,67.7,29.90,WNW,286,0.0,0.0,58,0.00,,CLR,0.00,VWS V14.01,2013-07-13 04:10:00,
2013-07-12 23:12:00,83.6,66.8,29.91,WNW,284,0.0,0.0,57,0.00,,CLR,0.00,VWS V14.01,2013-07-13 04:12:00,
2013-07-12 23:17:00,83.6,66.3,29.91,WNW,284,0.0,0.0,56,0.00,,CLR,0.00,VWS V14.01,2013-07-13 04:17:00,
2013-07-12 23:20:00,83.6,66.8,29.91,WNW,284,0.0,0.0,57,0.00,,CLR,0.00,VWS V14.01,2013-07-13 04:20:00,
2013-07-12 23:22:00,83.5,66.2,29.91,WNW,284,0.0,0.0,56,0.00,,CLR,0.00,VWS V14.01,2013-07-13 04:22:00,
2013-07-12 23:27:00,83.3,66.5,29.91,WNW,284,0.0,0.0,57,0.00,,CLR,0.00,VWS V14.01,2013-07-13 04:27:00,
2013-07-12 23:30:00,83.6,66.8,29.91,WNW,284,0.0,0.0,57,0.00,,CLR,0.00,VWS V14.01,2013-07-13 04:30:00,
2013-07-12 23:32:00,83.1,66.3,29.91,WNW,284,0.0,0.0,57,0.00,,CLR,0.00,VWS V14.01,2013-07-13 04:32:00,
2013-07-12 23:37:00,82.9,66.6,29.91,WNW,284,0.0,0.0,58,0.00,,CLR,0.00,VWS V14.01,2013-07-13 04:37:00,
2013-07-12 23:40:00,83.3,66.5,29.91,WNW,284,0.0,0.0,57,0.00,,CLR,0.00,VWS V14.01,2013-07-13 04:40:00,
2013-07-12 23:42:00,82.7,65.9,29.91,WNW,284,0.0,0.0,57,0.00,,CLR,0.00,VWS V14.01,2013-07-13 04:42:00,
2013-07-12 23:47:00,82.5,66.2,29.92,WNW,284,0.0,0.0,58,0.00,,CLR,0.00,VWS V14.01,2013-07-13 04:47:00,
2013-07-12 23:50:00,82.9,66.1,29.91,WNW,284,0.0,0.0,57,0.00,,CLR,0.00,VWS V14.01,2013-07-13 04:50:00,
2013-07-12 23:52:00,82.1,65.9,29.92,WNW,284,0.0,0.0,58,0.00,,CLR,0.00,VWS V14.01,2013-07-13 04:52:00,
2013-07-12 23:57:00,81.9,66.2,29.92,WNW,284,0.0,0.0,59,0.00,,CLR,0.00,VWS V14.01,2013-07-13 04:57:00,